Hebron, NE

7:45 AM CST on February 22, 2018 (GMT -0600)
Hebron Municipal

Weather History for KHJH - January, 2014

Change the Weather History Date:

Tuesday, January 21, 2014

  Actual Average Record
Temperature  
Mean Temperature 14 °F -  
Max Temperature 26 °F 35 °F 64 °F (1986)
Min Temperature 2 °F 14 °F -10 °F (1954)
Degree Days  
Heating Degree Days 51    
Moisture  
Dew Point -3 °F    
Average Humidity 52    
Maximum Humidity 73    
Minimum Humidity 23    
Precipitation  
Precipitation 0.00 in - - ()
Sea Level Pressure  
Sea Level Pressure 30.29 in    
Wind  
Wind Speed 9 mph (WSW)    
Max Wind Speed 18 mph    
Max Gust Speed 28 mph    
Visibility 10 miles    
Events      
Averages and records for this station are not official NWS values.
T = Trace of Precipitation, MM = Missing Value Source: NWS Daily Summary

Daily Weather History Graph

Daily Weather History Graph

Search for Another Location

Airport or City:

Trip Planner

Search our weather history database for the weather conditions in past years. The results will help you decide how hot, cold, wet, or windy it might be!

Date:

Astronomy

Jan. 21, 2014 Rise Set
Actual Time 7:47 AM CST 5:36 PM CST
Civil Twilight 7:18 AM CST 6:05 PM CST
Nautical Twilight 6:45 AM CST 6:38 PM CST
Astronomical Twilight 6:12 AM CST 7:10 PM CST
Moon 11:10 PM CST (1/21) 10:17 AM CST (1/21)
Length of Visible Light 10h 47m
Length of Day
9h 48m
Waning Gibbous, 74% of the Moon is Illuminated
Jan 21
Waning Gibbous
Jan 23
Last Quarter
Jan 30
New
Feb 6
First Quarter
Feb 14
Full

Hourly Weather History & Observations

Time (CST) Temp. Windchill Dew Point Humidity Pressure Visibility Wind Dir Wind Speed Gust Speed Precip Events Conditions
12:15 AM 9.9 °F -4.7 °F -0.9 °F 62% 30.48 in 10.0 mi North 11.5 mph 17.3 mph N/A   Clear
12:35 AM 9.1 °F -9.3 °F -2.7 °F 59% 30.49 in 10.0 mi North 18.4 mph 21.9 mph N/A   Clear
12:55 AM 8.4 °F -8.6 °F -3.5 °F 59% 30.49 in 10.0 mi North 15.0 mph 24.2 mph N/A   Clear
1:15 AM 7.9 °F -10.4 °F -3.5 °F 60% 30.49 in 10.0 mi North 17.3 mph 24.2 mph N/A   Clear
1:35 AM 7.5 °F -9.7 °F -3.6 °F 60% 30.48 in 10.0 mi North 15.0 mph 21.9 mph N/A   Clear
1:55 AM 7.2 °F -8.9 °F -3.6 °F 61% 30.49 in 10.0 mi North 12.7 mph 18.4 mph N/A   Clear
2:15 AM 6.8 °F -9.3 °F -3.3 °F 63% 30.49 in 10.0 mi North 12.7 mph - N/A   Clear
2:35 AM 6.3 °F -10.0 °F -3.1 °F 65% 30.49 in 10.0 mi North 12.7 mph 17.3 mph N/A   Clear
2:55 AM 5.9 °F -9.7 °F -3.3 °F 66% 30.50 in 10.0 mi North 11.5 mph - N/A   Clear
3:15 AM 5.9 °F -11.2 °F -3.8 °F 64% 30.50 in 10.0 mi North 13.8 mph 17.3 mph N/A   Clear
3:35 AM 5.5 °F -8.4 °F -3.6 °F 66% 30.51 in 10.0 mi North 9.2 mph - N/A   Clear
3:55 AM 5.0 °F -10.0 °F -3.6 °F 68% 30.50 in 10.0 mi North 10.4 mph - N/A   Clear
4:15 AM 4.8 °F -8.3 °F -4.2 °F 66% 30.50 in 10.0 mi North 8.1 mph - N/A   Clear
4:35 AM 4.5 °F -7.6 °F -5.4 °F 64% 30.51 in 10.0 mi North 6.9 mph - N/A   Clear
4:55 AM 3.9 °F -5.3 °F -6.2 °F 63% 30.50 in 10.0 mi North 4.6 mph - N/A   Clear
5:15 AM 3.7 °F -3.6 °F -6.2 °F 64% 30.50 in 10.0 mi North 3.5 mph - N/A   Clear
5:35 AM 3.6 °F -3.8 °F -5.8 °F 65% 30.50 in 10.0 mi North 3.5 mph - N/A   Clear
5:55 AM 3.2 °F -4.2 °F -5.8 °F 66% 30.49 in 10.0 mi NNW 3.5 mph - N/A   Clear
6:15 AM 2.7 °F - -5.1 °F 70% 30.47 in 10.0 mi Calm Calm - N/A   Clear
6:35 AM 2.8 °F - -4.9 °F 70% 30.47 in 10.0 mi Calm Calm - N/A   Clear
6:55 AM 3.2 °F -4.2 °F -4.0 °F 72% 30.46 in 10.0 mi WNW 3.5 mph - N/A   Clear
7:15 AM 3.2 °F - -3.6 °F 73% 30.46 in 10.0 mi Calm Calm - N/A   Clear
7:35 AM 3.2 °F - -4.2 °F 71% 30.46 in 10.0 mi Calm Calm - N/A   Clear
7:55 AM 2.8 °F - -4.2 °F 73% 30.46 in 10.0 mi Calm Calm - N/A   Clear
8:10 AM 2.8 °F - -4.0 °F 73% 30.46 in 10.0 mi Calm Calm - N/A   Clear
8:35 AM 3.9 °F - -4.0 °F 70% 30.45 in 10.0 mi Calm Calm - N/A   Clear
8:55 AM 5.0 °F -2.1 °F -3.6 °F 68% 30.44 in 10.0 mi WNW 3.5 mph - N/A   Clear
9:15 AM 5.7 °F -1.3 °F -3.3 °F 66% 30.43 in 10.0 mi WSW 3.5 mph - N/A   Clear
9:35 AM 6.3 °F - -5.6 °F 58% 30.42 in 10.0 mi Calm Calm - N/A   Clear
9:55 AM 7.5 °F 0.8 °F -5.4 °F 56% 30.41 in 10.0 mi SW 3.5 mph - N/A   Clear
10:15 AM 8.2 °F -1.8 °F -6.7 °F 51% 30.41 in 10.0 mi SW 5.8 mph - N/A   Clear
10:35 AM 9.1 °F 0.8 °F -7.1 °F 48% 30.42 in 10.0 mi WSW 4.6 mph - N/A   Clear
10:55 AM 10.0 °F 0.4 °F -7.1 °F 46% 30.41 in 10.0 mi SW 5.8 mph - N/A   Clear
11:15 AM 11.5 °F 2.1 °F -6.7 °F 44% 30.38 in 10.0 mi SSW 5.8 mph - N/A   Clear
11:35 AM 12.2 °F 0.7 °F -6.0 °F 44% 30.36 in 10.0 mi South 8.1 mph - N/A   Clear
11:55 AM 14.2 °F 1.4 °F -6.5 °F 40% 30.32 in 10.0 mi South 10.4 mph - N/A   Clear
12:15 PM 15.6 °F 4.9 °F -7.6 °F 35% 30.32 in 10.0 mi South 8.1 mph - N/A   Clear
12:35 PM 16.9 °F 4.8 °F -9.0 °F 31% 30.29 in 10.0 mi South 10.4 mph - N/A   Clear
12:55 PM 18.3 °F 5.2 °F -9.8 °F 28% 30.25 in 10.0 mi South 12.7 mph 16.1 mph N/A   Clear
1:15 PM 18.7 °F 6.3 °F -11.2 °F 26% 30.22 in 10.0 mi South 11.5 mph 17.3 mph N/A   Scattered Clouds
1:35 PM 19.4 °F 7.2 °F -10.5 °F 26% 30.20 in 10.0 mi South 11.5 mph 16.1 mph N/A   Scattered Clouds
1:55 PM 19.9 °F 6.7 °F -11.4 °F 25% 30.17 in 10.0 mi SSW 13.8 mph - N/A   Clear
2:15 PM 21.2 °F 7.8 °F -10.7 °F 24% 30.14 in 10.0 mi South 15.0 mph 20.7 mph N/A   Clear
2:35 PM 23.0 °F 8.7 °F -9.4 °F 24% 30.10 in 10.0 mi South 18.4 mph 23.0 mph N/A   Clear
2:55 PM 23.9 °F 10.8 °F -9.6 °F 23% 30.08 in 10.0 mi SSW 16.1 mph 27.6 mph N/A   Clear
3:15 PM 24.3 °F 11.7 °F -8.9 °F 23% 30.10 in 10.0 mi SSW 15.0 mph 24.2 mph N/A   Clear
3:35 PM 23.9 °F 12.3 °F -8.5 °F 24% 30.11 in 10.0 mi SSW 12.7 mph 20.7 mph N/A   Clear
3:55 PM 23.4 °F 11.1 °F -8.3 °F 25% 30.12 in 10.0 mi SW 13.8 mph 18.4 mph N/A   Clear
4:15 PM 25.7 °F 14.6 °F -6.3 °F 25% 30.10 in 10.0 mi SW 12.7 mph 17.3 mph N/A   Clear
4:35 PM 24.8 °F 14.0 °F -4.9 °F 27% 30.09 in 10.0 mi SSW 11.5 mph - N/A   Clear
4:55 PM 24.3 °F 14.6 °F -4.0 °F 29% 30.07 in 10.0 mi SSW 9.2 mph - N/A   Clear
5:15 PM 24.6 °F 17.7 °F -2.6 °F 31% 30.06 in 10.0 mi South 5.8 mph - N/A   Scattered Clouds
5:35 PM 23.9 °F 16.8 °F -0.8 °F 34% 30.05 in 10.0 mi South 5.8 mph - N/A   Scattered Clouds
5:55 PM 26.1 °F 18.4 °F 2.7 °F 37% 30.05 in 10.0 mi South 6.9 mph - N/A   Mostly Cloudy
6:15 PM 24.8 °F 19.1 °F 3.0 °F 39% 30.05 in 10.0 mi South 4.6 mph - N/A   Scattered Clouds
6:35 PM 24.1 °F 19.7 °F 3.2 °F 41% 30.05 in 10.0 mi SSE 3.5 mph - N/A   Scattered Clouds
6:55 PM 22.3 °F 17.6 °F 3.2 °F 44% 30.06 in 10.0 mi East 3.5 mph - N/A   Clear
7:15 PM 19.4 °F 12.8 °F 1.4 °F 46% 30.07 in 10.0 mi ESE 4.6 mph - N/A   Clear
7:35 PM 18.5 °F 13.3 °F 0.5 °F 45% 30.06 in 10.0 mi SE 3.5 mph - N/A   Clear
7:55 PM 18.5 °F 13.3 °F 0.7 °F 46% 30.07 in 10.0 mi SE 3.5 mph - N/A   Clear
8:15 PM 16.0 °F - 1.2 °F 52% 30.08 in 10.0 mi Calm Calm - N/A   Clear
8:35 PM 17.6 °F - 1.0 °F 48% 30.08 in 10.0 mi Calm Calm - N/A   Clear
8:55 PM 16.3 °F 10.8 °F 2.1 °F 54% 30.09 in 10.0 mi North 3.5 mph - N/A   Clear
9:15 PM 17.8 °F - 3.0 °F 53% 30.09 in 10.0 mi Calm Calm - N/A   Clear
9:35 PM 14.7 °F - 3.2 °F 60% 30.10 in 10.0 mi Calm Calm - N/A   Clear
9:55 PM 13.8 °F - 3.2 °F 63% 30.10 in 10.0 mi Calm Calm - N/A   Clear
10:15 PM 14.5 °F - 3.9 °F 63% 30.10 in 10.0 mi Calm Calm - N/A   Clear
10:35 PM 14.9 °F - 4.3 °F 63% 30.10 in 10.0 mi Calm Calm - N/A   Clear
10:55 PM 14.2 °F - 4.8 °F 66% 30.10 in 10.0 mi Calm Calm - N/A   Clear
11:15 PM 13.8 °F - 4.6 °F 67% 30.10 in 10.0 mi Calm Calm - N/A   Clear
11:35 PM 13.3 °F - 4.5 °F 68% 30.10 in 10.0 mi Calm Calm - N/A   Clear
11:55 PM 14.7 °F 9.0 °F 4.5 °F 64% 30.10 in 10.0 mi West 3.5 mph - N/A   Clear